Weather History for Wilkerson Pass, CO

Change the Weather History Date:

Wednesday, February 19, 2014

  Actual Average (KAFF) Record (KAFF)
Temperature  
Mean Temperature 22 °F -  
Max Temperature 33 °F 41 °F 57 °F (2011)
Min Temperature 8 °F 21 °F 8 °F (1998)
Degree Days  
Heating Degree Days 44    
Moisture  
Dew Point 11 °F    
Average Humidity 60    
Maximum Humidity 93    
Minimum Humidity 36    
Precipitation  
Precipitation 0.00 in - - ()
Sea Level Pressure  
Sea Level Pressure 29.78 in    
Wind  
Wind Speed 14 mph (SW)    
Max Wind Speed 18 mph    
Max Gust Speed 39 mph    
Visibility 9 miles    
Events Snow    
Averages and records for this station are not official NWS values.
T = Trace of Precipitation, MM = Missing Value Source: NWS Daily Summary

Daily Weather History Graph

Daily Weather History Graph

Search for Another Location

Airport:

Trip Planner

Search our weather history database for the weather conditions in past years. The results will help you decide how hot, cold, wet, or windy it might be!

Date:

Astronomy

Feb. 19, 2014 Rise Set
Actual Time 6:48 AM MST 5:43 PM MST
Civil Twilight 6:21 AM MST 6:11 PM MST
Nautical Twilight 5:50 AM MST 6:42 PM MST
Astronomical Twilight 5:19 AM MST 7:13 PM MST
Moon 10:37 PM MST (2/19) 8:58 AM MST (2/19)
Length of Visible Light 11h 49m
Length of Day
10h 55m
Waning Gibbous, 79% of the Moon is Illuminated
Feb 19
Waning Gibbous
Feb 22
Last Quarter
Mar 1
New
Mar 8
First Quarter
Mar 16
Full

Hourly Weather History & Observations

Time (MST) Temp. Windchill Dew Point Humidity Pressure Visibility Wind Dir Wind Speed Gust Speed Precip Events Conditions
12:00 AM 24.8 °F 12.9 °F 1.4 °F 36% 30.05 in 10.0 mi SSW 13.8 mph 19.6 mph N/A   Clear
12:20 AM 24.8 °F 11.5 °F 1.4 °F 36% 30.03 in 10.0 mi SW 17.3 mph 23.0 mph N/A   Clear
12:40 AM 23.0 °F 10.1 °F 1.4 °F 39% 30.01 in 10.0 mi SW 15.0 mph 25.3 mph N/A   Clear
12:59 AM 23.0 °F 9.6 °F 3.2 °F 43% 30.00 in 10.0 mi SSW 16.1 mph 26.5 mph N/A   Clear
1:19 AM 23.0 °F 9.6 °F 3.2 °F 43% 29.99 in 10.0 mi SW 16.1 mph 28.8 mph N/A   Clear
1:40 AM 23.0 °F 9.6 °F 3.2 °F 43% 29.98 in 10.0 mi SW 16.1 mph 26.5 mph N/A   Clear
2:00 AM 23.0 °F 9.6 °F 3.2 °F 43% 29.97 in 10.0 mi SW 16.1 mph 24.2 mph N/A   Clear
2:19 AM 23.0 °F 10.1 °F 3.2 °F 43% 29.97 in 10.0 mi SW 15.0 mph 26.5 mph N/A   Clear
2:40 AM 23.0 °F 8.7 °F 5.0 °F 46% 29.95 in 10.0 mi SW 18.4 mph 26.5 mph N/A   Clear
3:00 AM 23.0 °F 10.1 °F 5.0 °F 46% 29.94 in 10.0 mi SSW 15.0 mph 26.5 mph N/A   Clear
3:20 AM 23.0 °F 11.1 °F 5.0 °F 46% 29.93 in 10.0 mi SW 12.7 mph 27.6 mph N/A   Clear
3:40 AM 23.0 °F 11.1 °F 5.0 °F 46% 29.93 in 10.0 mi SW 12.7 mph 19.6 mph N/A   Clear
4:00 AM 21.2 °F 7.3 °F 3.2 °F 46% 29.91 in 10.0 mi SW 16.1 mph 29.9 mph N/A   Clear
4:19 AM 21.2 °F 7.8 °F 5.0 °F 50% 29.90 in 10.0 mi SW 15.0 mph 21.9 mph N/A   Clear
4:40 AM 21.2 °F 8.3 °F 5.0 °F 50% 29.89 in 10.0 mi SSW 13.8 mph 23.0 mph N/A   Clear
5:00 AM 21.2 °F 7.8 °F 5.0 °F 50% 29.88 in 10.0 mi SSW 15.0 mph 27.6 mph N/A   Clear
5:19 AM 21.2 °F 7.8 °F 5.0 °F 50% 29.88 in 10.0 mi SSW 15.0 mph 25.3 mph N/A   Clear
5:40 AM 21.2 °F 8.9 °F 5.0 °F 50% 29.87 in 10.0 mi SSW 12.7 mph 23.0 mph N/A   Clear
6:00 AM 21.2 °F 8.3 °F 5.0 °F 50% 29.86 in 10.0 mi SSW 13.8 mph 21.9 mph N/A   Clear
6:20 AM 21.2 °F 8.3 °F 5.0 °F 50% 29.86 in 10.0 mi SSW 13.8 mph 20.7 mph N/A   Clear
6:40 AM 21.2 °F 8.3 °F 5.0 °F 50% 29.85 in 10.0 mi SSW 13.8 mph 20.7 mph N/A   Clear
7:00 AM 21.2 °F 7.8 °F 5.0 °F 50% 29.84 in 10.0 mi SSW 15.0 mph 29.9 mph N/A   Clear
7:19 AM 21.2 °F 8.3 °F 5.0 °F 50% 29.84 in 10.0 mi SSW 13.8 mph 24.2 mph N/A   Clear
7:40 AM 21.2 °F 8.9 °F 5.0 °F 50% 29.84 in 10.0 mi SSW 12.7 mph 21.9 mph N/A   Clear
8:00 AM 23.0 °F 10.6 °F 6.8 °F 50% 29.84 in 10.0 mi SSW 13.8 mph 25.3 mph N/A   Clear
8:20 AM 23.0 °F 10.1 °F 6.8 °F 50% 29.85 in 10.0 mi SSW 15.0 mph 25.3 mph N/A   Clear
8:40 AM 23.0 °F 10.1 °F 8.6 °F 54% 29.84 in 10.0 mi SW 15.0 mph 29.9 mph N/A   Clear
8:59 AM 24.8 °F 12.4 °F 8.6 °F 50% 29.83 in 10.0 mi SSW 15.0 mph 25.3 mph N/A   Clear
9:20 AM 26.6 °F 15.2 °F 10.4 °F 51% 29.83 in 10.0 mi SSW 13.8 mph 23.0 mph N/A   Clear
9:40 AM 28.4 °F 17.5 °F 12.2 °F 51% 29.83 in 10.0 mi SSW 13.8 mph 24.2 mph N/A   Clear
10:00 AM 30.2 °F 20.8 °F 14.0 °F 51% 29.83 in 10.0 mi SSW 11.5 mph 23.0 mph N/A   Clear
10:20 AM 30.2 °F 20.2 °F 14.0 °F 51% 29.83 in 10.0 mi SSW 12.7 mph 21.9 mph N/A   Clear
10:40 AM 32.0 °F 22.1 °F 14.0 °F 48% 29.81 in 10.0 mi SSW 13.8 mph 23.0 mph N/A   Clear
11:00 AM 32.0 °F 20.8 °F 15.8 °F 51% 29.80 in 10.0 mi SW 17.3 mph 27.6 mph N/A   Clear
11:19 AM 32.0 °F 21.6 °F 15.8 °F 51% 29.80 in 10.0 mi SW 15.0 mph 25.3 mph N/A   Clear
11:40 AM 32.0 °F 22.5 °F 17.6 °F 55% 29.80 in 10.0 mi SSW 12.7 mph 23.0 mph N/A   Scattered Clouds
12:00 PM 33.8 °F 24.3 °F 17.6 °F 52% 29.78 in 10.0 mi SSW 13.8 mph 23.0 mph N/A   Scattered Clouds
12:20 PM 32.0 °F 23.0 °F 19.4 °F 60% 29.78 in 10.0 mi SSW 11.5 mph 21.9 mph N/A   Scattered Clouds
12:40 PM 33.8 °F 24.3 °F 19.4 °F 56% 29.77 in 10.0 mi SSW 13.8 mph 23.0 mph N/A   Scattered Clouds
1:00 PM 33.8 °F 24.8 °F 17.6 °F 52% 29.76 in 10.0 mi SSW 12.7 mph 21.9 mph N/A   Scattered Clouds
1:20 PM 33.8 °F 25.3 °F 17.6 °F 52% 29.74 in 10.0 mi SSW 11.5 mph 24.2 mph N/A   Clear
1:40 PM 33.8 °F 27.0 °F 15.8 °F 48% 29.74 in 10.0 mi SSW 8.1 mph 19.6 mph N/A   Clear
2:00 PM 32.0 °F 24.2 °F 14.0 °F 48% 29.72 in 10.0 mi SSW 9.2 mph - N/A   Clear
2:20 PM 32.0 °F 24.2 °F 14.0 °F 48% 29.71 in 10.0 mi SSW 9.2 mph - N/A   Clear
2:40 PM 32.0 °F 25.6 °F 14.0 °F 48% 29.71 in 10.0 mi South 6.9 mph - N/A   Clear
3:00 PM 32.0 °F 24.2 °F 17.6 °F 55% 29.71 in 10.0 mi SSW 9.2 mph 20.7 mph N/A   Scattered Clouds
3:20 PM 32.0 °F 23.6 °F 19.4 °F 60% 29.69 in 10.0 mi SSW 10.4 mph 20.7 mph N/A   Scattered Clouds
3:40 PM 30.2 °F 21.9 °F 17.6 °F 60% 29.68 in 10.0 mi SSW 9.2 mph - N/A   Clear
4:00 PM 28.4 °F 21.2 °F 15.8 °F 59% 29.66 in 10.0 mi SSW 6.9 mph - N/A   Clear
4:20 PM 28.4 °F 19.7 °F 15.8 °F 59% 29.66 in 10.0 mi SSW 9.2 mph 17.3 mph N/A   Clear
4:39 PM 26.6 °F 19.1 °F 15.8 °F 64% 29.66 in 10.0 mi South 6.9 mph - N/A   Scattered Clouds
5:00 PM 26.6 °F 18.2 °F 15.8 °F 64% 29.66 in 10.0 mi South 8.1 mph - N/A   Overcast
5:20 PM 24.8 °F 14.0 °F 21.2 °F 86% 29.64 in 2.5 mi SW 11.5 mph 20.7 mph N/A Snow Light Snow
5:40 PM 23.0 °F 11.7 °F 21.2 °F 93% 29.65 in 0.5 mi SSW 11.5 mph 17.3 mph N/A Snow Snow
6:00 PM 23.0 °F 13.9 °F 21.2 °F 93% 29.64 in 0.5 mi SSW 8.1 mph - N/A Snow Heavy Snow
6:20 PM 23.0 °F 13.9 °F 21.2 °F 93% 29.66 in 0.5 mi WNW 8.1 mph - N/A Snow Heavy Snow
6:40 PM 21.2 °F 13.6 °F 19.4 °F 93% 29.64 in 7.0 mi West 5.8 mph - N/A Snow Light Snow
7:00 PM 21.2 °F 13.6 °F 19.4 °F 93% 29.62 in 10.0 mi West 5.8 mph - N/A   Overcast
7:20 PM 21.2 °F 10.1 °F 17.6 °F 86% 29.62 in 10.0 mi WNW 10.4 mph 18.4 mph N/A   Overcast
7:40 PM 21.2 °F 12.6 °F 17.6 °F 86% 29.62 in 1.2 mi West 6.9 mph 17.3 mph N/A Snow Light Snow
8:00 PM 19.4 °F 5.5 °F 17.6 °F 93% 29.62 in 0.2 mi NW 15.0 mph 26.5 mph N/A Snow Heavy Snow
8:20 PM 17.6 °F 4.3 °F 14.0 °F 86% 29.62 in 1.8 mi WNW 12.7 mph 26.5 mph N/A Snow Light Snow
8:40 PM 19.4 °F 7.2 °F 12.2 °F 74% 29.62 in 10.0 mi WNW 11.5 mph 26.5 mph N/A   Overcast
9:00 PM 17.6 °F 3.7 °F 10.4 °F 73% 29.62 in 10.0 mi NW 13.8 mph 24.2 mph N/A   Overcast
9:19 PM 15.8 °F 1.4 °F 10.4 °F 79% 29.62 in 10.0 mi NW 13.8 mph 25.3 mph N/A   Overcast
9:39 PM 15.8 °F 2.7 °F 8.6 °F 73% 29.61 in 10.0 mi WNW 11.5 mph 39.1 mph N/A   Overcast
10:00 PM 14.0 °F 1.2 °F 8.6 °F 79% 29.62 in 10.0 mi NNW 10.4 mph 27.6 mph N/A   Overcast
10:20 PM 12.2 °F -1.8 °F 8.6 °F 85% 29.62 in 10.0 mi NNW 11.5 mph 25.3 mph N/A   Overcast
10:40 PM 12.2 °F -3.1 °F 6.8 °F 79% 29.62 in 10.0 mi North 13.8 mph 26.5 mph N/A   Overcast
11:00 PM 10.4 °F -6.6 °F 5.0 °F 79% 29.62 in 10.0 mi North 16.1 mph 25.3 mph N/A   Overcast
11:20 PM 10.4 °F -7.2 °F 5.0 °F 79% 29.61 in 10.0 mi NNW 17.3 mph 28.8 mph N/A   Overcast
11:40 PM 10.4 °F -6.6 °F 3.2 °F 73% 29.62 in 10.0 mi NNW 16.1 mph 25.3 mph N/A   Mostly Cloudy
11:59 PM 8.6 °F -10.0 °F 1.4 °F 73% 29.62 in 10.0 mi North 18.4 mph 29.9 mph N/A   Scattered Clouds